Belmar, NJ

5:02 PM EST on February 27, 2017 (GMT -0500)
Allaire

Weather History for KBLM - April, 2013

Change the Weather History Date:

Thursday, April 25, 2013

  Actual Average Record
Temperature  
Mean Temperature 54 °F -  
Max Temperature 62 °F 61 °F 75 °F (2011)
Min Temperature 46 °F 43 °F 33 °F (2015)
Degree Days  
Heating Degree Days 11    
Growing Degree Days 4 (Base 50)    
Moisture  
Dew Point 35 °F    
Average Humidity 51    
Maximum Humidity 88    
Minimum Humidity 23    
Precipitation  
Precipitation 0.00 in - - ()
Sea Level Pressure  
Sea Level Pressure 30.15 in    
Wind  
Wind Speed 11 mph (West)    
Max Wind Speed 22 mph    
Max Gust Speed 31 mph    
Visibility 10 miles    
Events      
Averages and records for this station are not official NWS values.
T = Trace of Precipitation, MM = Missing Value Source: NWS Daily Summary

Daily Weather History Graph

Daily Weather History Graph

Search for Another Location

Airport or City:

Trip Planner

Search our weather history database for the weather conditions in past years. The results will help you decide how hot, cold, wet, or windy it might be!

Date:

Astronomy

Apr. 25, 2013 Rise Set
Actual Time 6:03 AM EDT 7:45 PM EDT
Civil Twilight 5:34 AM EDT 8:14 PM EDT
Nautical Twilight 4:59 AM EDT 8:49 PM EDT
Astronomical Twilight 4:22 AM EDT 9:27 PM EDT
Moon 7:55 PM EDT (4/25) 5:44 AM EDT (4/25)
Length of Visible Light 14h 39m
Length of Day
13h 41m
Full, 100% of the Moon is Illuminated
Apr 25
Full
Apr 25
Full
May 2
Last Quarter
May 9
New
May 18
First Quarter

Hourly Weather History & Observations

Time (EDT) Temp. Windchill Dew Point Humidity Pressure Visibility Wind Dir Wind Speed Gust Speed Precip Events Conditions
12:15 AM 55.4 °F - 51.8 °F 88% 29.90 in 10.0 mi SW 6.9 mph - N/A   Scattered Clouds
12:35 AM 55.4 °F - 51.8 °F 88% 29.91 in 10.0 mi SW 8.1 mph - N/A   Mostly Cloudy
12:55 AM 55.4 °F - 51.8 °F 88% 29.91 in 10.0 mi SSW 8.1 mph - N/A   Overcast
1:15 AM 55.4 °F - 51.8 °F 88% 29.91 in 10.0 mi SW 10.4 mph - N/A   Mostly Cloudy
1:35 AM 55.4 °F - 51.8 °F 88% 29.92 in 10.0 mi SW 9.2 mph - N/A   Mostly Cloudy
1:55 AM 55.4 °F - 51.8 °F 88% 29.93 in 10.0 mi WSW 9.2 mph - N/A   Overcast
2:15 AM 57.2 °F - 53.6 °F 88% 29.94 in 10.0 mi West 8.1 mph - N/A   Overcast
2:35 AM 57.2 °F - 53.6 °F 88% 29.95 in 10.0 mi WNW 12.7 mph 17.3 mph N/A   Overcast
2:55 AM 57.2 °F - 37.4 °F 48% 29.96 in 10.0 mi WNW 18.4 mph 31.1 mph N/A   Overcast
3:15 AM 57.2 °F - 37.4 °F 48% 29.98 in 10.0 mi West 17.3 mph 21.9 mph N/A   Overcast
3:35 AM 55.4 °F - 37.4 °F 51% 29.99 in 10.0 mi WNW 17.3 mph 21.9 mph N/A   Overcast
3:55 AM 53.6 °F - 37.4 °F 54% 30.00 in 10.0 mi WNW 16.1 mph 23.0 mph N/A   Overcast
4:15 AM 51.8 °F - 37.4 °F 58% 30.02 in 10.0 mi WNW 12.7 mph - N/A   Overcast
4:35 AM 51.8 °F - 37.4 °F 58% 30.03 in 10.0 mi WNW 10.4 mph 19.6 mph N/A   Overcast
4:55 AM 51.8 °F - 35.6 °F 54% 30.03 in 10.0 mi WNW 15.0 mph 27.6 mph N/A   Overcast
5:15 AM 50.0 °F - 35.6 °F 58% 30.05 in 10.0 mi West 19.6 mph - N/A   Overcast
5:35 AM 48.2 °F - 39.2 °F 71% 30.07 in 10.0 mi West 13.8 mph 20.7 mph N/A   Overcast
5:55 AM 46.4 °F 41.1 °F 39.2 °F 76% 30.08 in 10.0 mi WNW 11.5 mph - N/A   Overcast
6:15 AM 46.4 °F 40.7 °F 37.4 °F 71% 30.09 in 10.0 mi WNW 12.7 mph - N/A   Mostly Cloudy
6:35 AM 48.2 °F - 35.6 °F 62% 30.11 in 10.0 mi WNW 16.1 mph 23.0 mph N/A   Mostly Cloudy
6:55 AM 46.4 °F 39.2 °F 32.0 °F 57% 30.14 in 10.0 mi NW 18.4 mph 24.2 mph N/A   Overcast
7:15 AM 46.4 °F 40.1 °F 30.2 °F 53% 30.15 in 10.0 mi NW 15.0 mph 20.7 mph N/A   Mostly Cloudy
7:35 AM 48.2 °F - 32.0 °F 54% 30.16 in 10.0 mi NW 21.9 mph 29.9 mph N/A   Clear
7:55 AM 46.4 °F 40.7 °F 32.0 °F 57% 30.18 in 10.0 mi NW 12.7 mph 23.0 mph N/A   Scattered Clouds
8:15 AM 46.4 °F 38.7 °F 30.2 °F 53% 30.19 in 10.0 mi NW 20.7 mph 25.3 mph N/A   Partly Cloudy
8:35 AM 48.2 °F - 30.2 °F 50% 30.19 in 10.0 mi NW 15.0 mph - N/A   Clear
8:55 AM 48.2 °F - 32.0 °F 54% 30.18 in 10.0 mi NW 19.6 mph - N/A   Clear
9:15 AM 50.0 °F - 30.2 °F 47% 30.18 in 10.0 mi NNW 19.6 mph 23.0 mph N/A   Clear
9:35 AM 51.8 °F - 30.2 °F 44% 30.19 in 10.0 mi NW 18.4 mph 24.2 mph N/A   Clear
9:55 AM 51.8 °F - 28.4 °F 41% 30.19 in 10.0 mi NW 17.3 mph 21.9 mph N/A   Clear
10:15 AM 51.8 °F - 28.4 °F 41% 30.19 in 10.0 mi NW 13.8 mph 23.0 mph N/A   Clear
10:35 AM 53.6 °F - 30.2 °F 41% 30.20 in 10.0 mi NW 13.8 mph - N/A   Clear
10:55 AM 53.6 °F - 28.4 °F 38% 30.20 in 10.0 mi WNW 11.5 mph 19.6 mph N/A   Clear
11:15 AM 55.4 °F - 28.4 °F 36% 30.20 in 10.0 mi NW 11.5 mph 19.6 mph N/A   Clear
11:35 AM 55.4 °F - 28.4 °F 36% 30.21 in 10.0 mi WNW 12.7 mph 19.6 mph N/A   Clear
11:55 AM 57.2 °F - 28.4 °F 33% 30.20 in 10.0 mi West 15.0 mph 18.4 mph N/A   Clear
12:15 PM 57.2 °F - 28.4 °F 33% 30.21 in 10.0 mi NW 12.7 mph 21.9 mph N/A   Clear
12:35 PM 57.2 °F - 26.6 °F 31% 30.20 in 10.0 mi NW 10.4 mph - N/A   Clear
12:55 PM 59.0 °F - 28.4 °F 31% 30.20 in 10.0 mi WNW 13.8 mph 17.3 mph N/A   Clear
1:15 PM 60.8 °F - 30.2 °F 31% 30.19 in 10.0 mi NW 11.5 mph - N/A   Clear
1:35 PM 60.8 °F - 26.6 °F 27% 30.19 in 10.0 mi WNW 6.9 mph - N/A   Clear
1:55 PM 60.8 °F - 24.8 °F 25% 30.19 in 10.0 mi NW 12.7 mph 16.1 mph N/A   Clear
2:15 PM 60.8 °F - 26.6 °F 27% 30.19 in 10.0 mi SW 9.2 mph - N/A   Clear
2:35 PM 60.8 °F - 26.6 °F 27% 30.19 in 10.0 mi WNW 11.5 mph - N/A   Clear
2:55 PM 60.8 °F - 26.6 °F 27% 30.19 in 10.0 mi ENE 3.5 mph - N/A   Clear
3:15 PM 60.8 °F - 23.0 °F 23% 30.19 in 10.0 mi NW 3.5 mph - N/A   Clear
3:35 PM 62.6 °F - 24.8 °F 24% 30.19 in 10.0 mi WSW 8.1 mph - N/A   Clear
3:55 PM 62.6 °F - 24.8 °F 24% 30.18 in 10.0 mi NW 4.6 mph - N/A   Clear
4:15 PM 62.6 °F - 24.8 °F 24% 30.18 in 10.0 mi North 9.2 mph - N/A   Clear
4:35 PM 60.8 °F - 33.8 °F 36% 30.19 in 10.0 mi South 8.1 mph - N/A   Clear
4:55 PM 60.8 °F - 30.2 °F 31% 30.19 in 10.0 mi SSE 10.4 mph - N/A   Clear
5:15 PM 57.2 °F - 30.2 °F 36% 30.20 in 10.0 mi SSE 9.2 mph - N/A   Clear
5:35 PM 55.4 °F - 32.0 °F 41% 30.20 in 10.0 mi SSE 11.5 mph - N/A   Clear
5:55 PM 55.4 °F - 32.0 °F 41% 30.20 in 10.0 mi South 10.4 mph - N/A   Clear
6:15 PM 55.4 °F - 32.0 °F 41% 30.20 in 10.0 mi SSE 10.4 mph - N/A   Clear
6:35 PM 55.4 °F - 33.8 °F 44% 30.21 in 10.0 mi SSE 9.2 mph - N/A   Clear
6:55 PM 55.4 °F - 35.6 °F 47% 30.21 in 10.0 mi South 9.2 mph - N/A   Clear
7:15 PM 53.6 °F - 33.8 °F 47% 30.22 in 10.0 mi South 8.1 mph - N/A   Clear
7:35 PM 53.6 °F - 35.6 °F 51% 30.22 in 10.0 mi South 9.2 mph - N/A   Clear
7:55 PM 51.8 °F - 35.6 °F 54% 30.22 in 10.0 mi South 6.9 mph - N/A   Clear
8:15 PM 51.8 °F - 35.6 °F 54% 30.23 in 10.0 mi South 5.8 mph - N/A   Clear
8:35 PM 51.8 °F - 35.6 °F 54% 30.24 in 10.0 mi South 5.8 mph - N/A   Clear
8:55 PM 51.8 °F - 35.6 °F 54% 30.24 in 10.0 mi South 5.8 mph - N/A   Clear
9:15 PM 51.8 °F - 35.6 °F 54% 30.25 in 10.0 mi SSW 3.5 mph - N/A   Clear
9:35 PM 50.0 °F - 35.6 °F 58% 30.26 in 10.0 mi South 4.6 mph - N/A   Clear
9:55 PM 50.0 °F - 37.4 °F 62% 30.27 in 10.0 mi South 5.8 mph - N/A   Clear
10:15 PM 50.0 °F - 37.4 °F 62% 30.27 in 10.0 mi SSW 5.8 mph - N/A   Clear
10:35 PM 48.2 °F - 35.6 °F 62% 30.27 in 10.0 mi SW 4.6 mph - N/A   Clear
10:55 PM 48.2 °F - 37.4 °F 66% 30.28 in 10.0 mi SW 4.6 mph - N/A   Clear
11:15 PM 48.2 °F - 37.4 °F 66% 30.27 in 10.0 mi SSW 3.5 mph - N/A   Clear
11:35 PM 48.2 °F - 37.4 °F 66% 30.28 in 10.0 mi SW 4.6 mph - N/A   Clear
11:55 PM 46.4 °F 45.2 °F 37.4 °F 71% 30.28 in 10.0 mi SW 3.5 mph - N/A   Clear